When you browse on this site, cookies collect data to enhance your experience and personalize the content and advertising you see.
Visit our Privacy Policy to learn more. By continuing to use the site, you agree to this use of cookies and data.
  • In Czech Republic
  • List of Countries
  • For 7 days
  • Water Temperature
  • Weather Map
  • Weather Widgets
  • user-avatar
    Login

    Hourly Weather La-Plata

    Today, 18 February, Tuesday

    Time Temperature Precipitation Wind Pressure Humidity
    00:00 +23°C° 0.5 mm 4 mps 752 mmHg 88%
    01:00 +22°C° 0.5 mm 6 mps 752 mmHg 89%
    02:00 +21°C° 0.5 mm 7 mps 752 mmHg 89%
    03:00 +20°C° 0 mm 7 mps 752 mmHg 85%
    04:00 +20°C° 0 mm 8 mps 753 mmHg 80%
    05:00 +18°C° 0 mm 8 mps 753 mmHg 76%
    06:00 +20°C° 0 mm 7 mps 754 mmHg 71%
    07:00 +20°C° 0 mm 7 mps 755 mmHg 67%
    08:00 +21°C° 0 mm 6 mps 756 mmHg 62%
    09:00 +22°C° 0 mm 6 mps 756 mmHg 57%
    10:00 +25°C° 0 mm 5 mps 756 mmHg 51%
    11:00 +27°C° 0 mm 5 mps 757 mmHg 46%
    12:00 +28°C° 0 mm 5 mps 757 mmHg 42%
    13:00 +29°C° 0 mm 4 mps 757 mmHg 39%
    14:00 +30°C° 0 mm 4 mps 756 mmHg 35%
    15:00 +29°C° 0 mm 4 mps 756 mmHg 35%
    16:00 +29°C° 0 mm 4 mps 756 mmHg 35%
    17:00 +29°C° 0 mm 4 mps 756 mmHg 35%
    18:00 +27°C° 0 mm 4 mps 756 mmHg 43%
    19:00 +25°C° 0 mm 3 mps 757 mmHg 52%
    20:00 +22°C° 0 mm 3 mps 758 mmHg 60%
    21:00 +22°C° 0 mm 3 mps 758 mmHg 62%
    22:00 +22°C° 0 mm 3 mps 758 mmHg 65%
    23:00 +21°C° 0 mm 3 mps 758 mmHg 67%

    Tomorrow, 19 February, Wednesday

    Time Temperature Precipitation Wind Pressure Humidity
    00:00 +21°C° 0 mm 3 mps 758 mmHg 71%
    01:00 +20°C° 0 mm 3 mps 757 mmHg 75%
    02:00 +20°C° 0 mm 2 mps 757 mmHg 79%
    03:00 +20°C° 0 mm 3 mps 757 mmHg 79%
    04:00 +20°C° 0 mm 3 mps 757 mmHg 79%
    05:00 +20°C° 0 mm 3 mps 757 mmHg 79%
    06:00 +21°C° 0 mm 3 mps 757 mmHg 73%
    07:00 +22°C° 0 mm 4 mps 757 mmHg 66%
    08:00 +25°C° 0 mm 5 mps 758 mmHg 60%
    09:00 +26°C° 0 mm 5 mps 757 mmHg 53%
    10:00 +28°C° 0 mm 5 mps 757 mmHg 46%
    11:00 +29°C° 0 mm 5 mps 756 mmHg 39%
    12:00 +30°C° 0 mm 4 mps 756 mmHg 35%
    13:00 +32°C° 0 mm 4 mps 755 mmHg 31%
    14:00 +33°C° 0 mm 4 mps 755 mmHg 27%
    15:00 +33°C° 0 mm 3 mps 754 mmHg 27%
    16:00 +33°C° 0 mm 3 mps 754 mmHg 27%
    17:00 +33°C° 0 mm 3 mps 753 mmHg 27%
    18:00 +30°C° 0 mm 3 mps 754 mmHg 31%
    19:00 +28°C° 0 mm 3 mps 754 mmHg 34%
    20:00 +27°C° 0 mm 3 mps 754 mmHg 38%
    21:00 +25°C° 0 mm 5 mps 755 mmHg 43%
    22:00 +22°C° 0 mm 7 mps 756 mmHg 49%
    23:00 +20°C° 0 mm 8 mps 757 mmHg 54%

    Day after tomorrow, 20 February, Thursday

    Time Temperature Precipitation Wind Pressure Humidity
    00:00 +18°C° 0 mm 8 mps 757 mmHg 55%
    01:00 +17°C° 0 mm 7 mps 758 mmHg 55%
    02:00 +17°C° 0 mm 6 mps 758 mmHg 55%
    03:00 +16°C° 0 mm 6 mps 759 mmHg 58%
    04:00 +15°C° 0 mm 6 mps 759 mmHg 60%
    05:00 +15°C° 0 mm 6 mps 760 mmHg 62%
    06:00 +15°C° 0 mm 6 mps 760 mmHg 57%
    07:00 +16°C° 0 mm 6 mps 761 mmHg 52%
    08:00 +17°C° 0 mm 6 mps 761 mmHg 47%
    09:00 +19°C° 0 mm 6 mps 761 mmHg 42%
    10:00 +21°C° 0 mm 6 mps 761 mmHg 36%
    11:00 +22°C° 0 mm 6 mps 762 mmHg 30%
    12:00 +23°C° 0 mm 6 mps 762 mmHg 28%
    13:00 +24°C° 0 mm 6 mps 761 mmHg 26%
    14:00 +26°C° 0 mm 6 mps 761 mmHg 24%
    15:00 +26°C° 0 mm 6 mps 761 mmHg 26%
    16:00 +24°C° 0 mm 6 mps 761 mmHg 27%
    17:00 +24°C° 0 mm 6 mps 761 mmHg 28%
    18:00 +23°C° 0 mm 6 mps 761 mmHg 33%
    19:00 +21°C° 0 mm 6 mps 761 mmHg 37%
    20:00 +19°C° 0 mm 6 mps 762 mmHg 41%
    21:00 +17°C° 0 mm 6 mps 762 mmHg 45%
    22:00 +16°C° 0 mm 6 mps 763 mmHg 49%
    23:00 +15°C° 0 mm 6 mps 763 mmHg 52%

    21 February, Friday

    Time Temperature Precipitation Wind Pressure Humidity
    00:00 +14°C° 0 mm 5 mps 763 mmHg 57%
    01:00 +14°C° 0 mm 5 mps 763 mmHg 62%
    02:00 +13°C° 0 mm 5 mps 763 mmHg 67%
    09:00 +19°C° 0 mm 6 mps 764 mmHg 49%
    10:00 +20°C° 0 mm 6 mps 764 mmHg 42%
    11:00 +22°C° 0 mm 6 mps 764 mmHg 36%
    12:00 +23°C° 0 mm 6 mps 764 mmHg 34%
    13:00 +23°C° 0 mm 6 mps 764 mmHg 32%
    14:00 +24°C° 0 mm 6 mps 763 mmHg 31%
    15:00 +24°C° 0 mm 6 mps 763 mmHg 31%
    16:00 +24°C° 0 mm 6 mps 763 mmHg 31%
    17:00 +25°C° 0 mm 5 mps 763 mmHg 31%
    18:00 +22°C° 0 mm 6 mps 763 mmHg 36%
    19:00 +20°C° 0 mm 6 mps 763 mmHg 41%
    20:00 +17°C° 0 mm 6 mps 764 mmHg 46%
    21:00 +16°C° 0 mm 6 mps 764 mmHg 52%
    22:00 +14°C° 0 mm 6 mps 764 mmHg 59%
    23:00 +13°C° 0 mm 6 mps 765 mmHg 65%

    22 February, Saturday

    Time Temperature Precipitation Wind Pressure Humidity
    00:00 +12°C° 0 mm 5 mps 765 mmHg 70%
    01:00 +10°C° 0 mm 5 mps 764 mmHg 75%
    02:00 +10°C° 0 mm 4 mps 764 mmHg 80%
    03:00 +10°C° 0 mm 4 mps 765 mmHg 82%
    04:00 +10°C° 0 mm 4 mps 765 mmHg 83%
    05:00 +8°C° 0 mm 4 mps 765 mmHg 85%
    06:00 +11°C° 0 mm 4 mps 765 mmHg 77%
    07:00 +13°C° 0 mm 4 mps 765 mmHg 68%
    08:00 +15°C° 0 mm 4 mps 766 mmHg 60%
    09:00 +18°C° 0 mm 3 mps 765 mmHg 51%
    10:00 +20°C° 0 mm 3 mps 765 mmHg 42%
    11:00 +23°C° 0 mm 2 mps 765 mmHg 34%
    12:00 +24°C° 0 mm 3 mps 765 mmHg 33%
    13:00 +25°C° 0 mm 3 mps 764 mmHg 33%
    14:00 +26°C° 0 mm 4 mps 764 mmHg 33%
    15:00 +25°C° 0 mm 4 mps 763 mmHg 38%
    16:00 +23°C° 0 mm 5 mps 763 mmHg 43%
    17:00 +22°C° 0 mm 5 mps 763 mmHg 48%
    18:00 +20°C° 0 mm 5 mps 763 mmHg 55%
    19:00 +19°C° 0 mm 5 mps 763 mmHg 62%
    20:00 +17°C° 0 mm 4 mps 763 mmHg 69%
    21:00 +17°C° 0 mm 4 mps 763 mmHg 71%
    22:00 +17°C° 0 mm 4 mps 763 mmHg 73%
    23:00 +16°C° 0 mm 3 mps 763 mmHg 76%

    23 February, Sunday

    Time Temperature Precipitation Wind Pressure Humidity
    00:00 +16°C° 0 mm 3 mps 763 mmHg 76%
    01:00 +16°C° 0 mm 3 mps 763 mmHg 76%
    02:00 +16°C° 0 mm 3 mps 762 mmHg 77%
    03:00 +16°C° 0 mm 3 mps 762 mmHg 78%
    04:00 +16°C° 0 mm 3 mps 762 mmHg 78%
    05:00 +16°C° 0 mm 3 mps 762 mmHg 79%
    06:00 +18°C° 0 mm 4 mps 762 mmHg 73%
    07:00 +19°C° 0 mm 4 mps 762 mmHg 67%
    08:00 +21°C° 0 mm 4 mps 762 mmHg 61%
    09:00 +22°C° 0 mm 4 mps 762 mmHg 55%
    10:00 +23°C° 0 mm 4 mps 761 mmHg 49%
    11:00 +25°C° 0 mm 3 mps 761 mmHg 43%
    12:00 +26°C° 0 mm 3 mps 760 mmHg 39%
    13:00 +27°C° 0 mm 3 mps 759 mmHg 35%
    14:00 +28°C° 0 mm 2 mps 759 mmHg 31%
    15:00 +28°C° 0 mm 3 mps 758 mmHg 32%
    16:00 +28°C° 0 mm 3 mps 757 mmHg 32%
    17:00 +28°C° 0 mm 4 mps 757 mmHg 33%
    18:00 +26°C° 0 mm 4 mps 757 mmHg 46%
    19:00 +22°C° 0 mm 5 mps 757 mmHg 59%
    20:00 +20°C° 0 mm 5 mps 757 mmHg 72%
    21:00 +20°C° 0 mm 5 mps 757 mmHg 75%
    22:00 +20°C° 0 mm 4 mps 757 mmHg 77%
    23:00 +20°C° 0 mm 4 mps 757 mmHg 80%
    Show more